Location: Kumla
(59.1265°N, 15.1401°E)
Time: 08:03:47
(UTC+01:00)

Transit 4A - Pass Details

Date: 12 December 2023
Orbit: 870 x 973 km, 66.8° (Epoch: 02 March)

Event Time Altitude Azimuth Distance (km) Brightness Sun altitude
Rises 18:22:25 0° 194° (SSW) 3,658 11.3 -23.4°
Reaches altitude 10° 18:25:07 10° 187° (S) 2,710 10.5 -23.7°
Enters shadow 18:30:12 38° 137° (SE) 1,425 8.5 -24.4°
